| time (UTC) | temp C | wind direction | speed KPH | gust KPH | rain 1hr cm | rain 24hr cm | rain mn cm | humidity % | barometer mb |
| 20260906221020 | 30 | 134 | 11.3 | 22.5 | 0.00 | 0.00 | 0.00 | 31 | 1002.3 |
| 20260906220519 | 30 | 163 | 12.9 | 24.1 | 0.00 | 0.00 | 0.00 | 31 | 1002.3 |
| 20260906220019 | 30 | 142 | 6.4 | 19.3 | 0.00 | 0.00 | 0.00 | 29 | 1002.5 |
| 20260906215519 | 31 | 158 | 11.3 | 19.3 | 0.00 | 0.00 | 0.00 | 28 | 1002.4 |
| 20260906215018 | 31 | 144 | 11.3 | 22.5 | 0.00 | 0.00 | 0.00 | 30 | 1002.5 |
| 20260906214521 | 30 | 160 | 14.5 | 22.5 | 0.00 | 0.00 | 0.00 | 30 | 1002.7 |
| 20260906214021 | 30 | 170 | 6.4 | 17.7 | 0.00 | 0.00 | 0.00 | 28 | 1002.8 |
| 20260906213515 | 30 | 168 | 6.4 | 17.7 | 0.00 | 0.00 | 0.00 | 28 | 1002.8 |
| 20260906213019 | 30 | 157 | 8.0 | 19.3 | 0.00 | 0.00 | 0.00 | 28 | 1002.9 |
| 20260906212515 | 31 | 179 | 9.7 | 17.7 | 0.00 | 0.00 | 0.00 | 27 | 1003.0 |
| 20260906212016 | 31 | 185 | 11.3 | 19.3 | 0.00 | 0.00 | 0.00 | 27 | 1002.9 |
| 20260906211529 | 31 | 228 | 8.0 | 19.3 | 0.00 | 0.00 | 0.00 | 27 | 1002.9 |
| 20260906211020 | 31 | 82 | 4.8 | 20.9 | 0.00 | 0.00 | 0.00 | 26 | 1003.0 |
| 20260906210515 | 31 | 196 | 6.4 | 22.5 | 0.00 | 0.00 | 0.00 | 26 | 1003.2 |
| 20260906210013 | 32 | 190 | 12.9 | 24.1 | 0.00 | 0.00 | 0.00 | 24 | 1003.0 |
| 20260906205514 | 32 | 223 | 11.3 | 22.5 | 0.00 | 0.00 | 0.00 | 23 | 1003.1 |
| 20260906205013 | 33 | 202 | 12.9 | 22.5 | 0.00 | 0.00 | 0.00 | 22 | 1003.2 |
| 20260906204523 | 33 | 288 | 8.0 | 24.1 | 0.00 | 0.00 | 0.00 | 23 | 1003.2 |
| 20260906204011 | 33 | 137 | 8.0 | 24.1 | 0.00 | 0.00 | 0.00 | 27 | 1002.9 |
| 20260906203510 | 32 | 94 | 4.8 | 24.1 | 0.00 | 0.00 | 0.00 | 28 | 1003.3 |
| 20260906203010 | 32 | 82 | 11.3 | 19.3 | 0.00 | 0.00 | 0.00 | 27 | 1003.4 |
| 20260906202509 | 31 | 82 | 6.4 | 17.7 | 0.00 | 0.00 | 0.00 | 29 | 1003.4 |
| 20260906202009 | 31 | 32 | 6.4 | 20.9 | 0.00 | 0.00 | 0.00 | 29 | 1003.5 |
| 20260906201608 | 30 | 32 | 8.0 | 20.9 | 0.00 | 0.00 | 0.00 | 30 | 1003.6 |
| 20260906201006 | 30 | 61 | 8.0 | 19.3 | 0.00 | 0.00 | 0.00 | 30 | 1003.9 |
| 20260906200506 | 30 | 103 | 9.7 | 19.3 | 0.00 | 0.00 | 0.00 | 30 | 1003.9 |
| 20260906200006 | 31 | 113 | 9.7 | 22.5 | 0.00 | 0.00 | 0.00 | 30 | 1003.9 |
| 20260906195506 | 31 | 118 | 12.9 | 22.5 | 0.00 | 0.00 | 0.00 | 29 | 1004.0 |
| 20260906195005 | 32 | 107 | 6.4 | 20.9 | 0.00 | 0.00 | 0.00 | 28 | 1003.9 |
| 20260906194508 | 32 | 111 | 9.7 | 20.9 | 0.00 | 0.00 | 0.00 | 28 | 1004.0 |
| 20260906194009 | 31 | 64 | 11.3 | 19.3 | 0.00 | 0.00 | 0.00 | 28 | 1004.1 |
| 20260906193505 | 31 | 95 | 8.0 | 22.5 | 0.00 | 0.00 | 0.00 | 29 | 1004.1 |
| 20260906193005 | 32 | 124 | 9.7 | 24.1 | 0.00 | 0.00 | 0.00 | 27 | 1004.2 |
| 20260906192504 | 32 | 53 | 6.4 | 24.1 | 0.00 | 0.00 | 0.00 | 27 | 1004.3 |
| 20260906192003 | 32 | 113 | 8.0 | 16.1 | 0.00 | 0.00 | 0.00 | 27 | 1004.3 |
| 20260906191508 | 32 | 34 | 4.8 | 17.7 | 0.00 | 0.00 | 0.00 | 27 | 1004.5 |
| 20260906191001 | 32 | 80 | 3.2 | 17.7 | 0.00 | 0.00 | 0.00 | 27 | 1004.5 |
| 20260906190602 | 32 | 63 | 6.4 | 17.7 | 0.00 | 0.00 | 0.00 | 27 | 1004.6 |
| 20260906190059 | 31 | 65 | 4.8 | 17.7 | 0.00 | 0.00 | 0.00 | 27 | 1004.7 |
| 20260906185557 | 31 | 86 | 8.0 | 17.7 | 0.00 | 0.00 | 0.00 | 27 | 1004.9 |
| 20260906185056 | 31 | 122 | 1.6 | 17.7 | 0.00 | 0.00 | 0.00 | 27 | 1005.0 |
| 20260906184554 | 31 | 114 | 8.0 | 17.7 | 0.00 | 0.00 | 0.00 | 27 | 1005.1 |
| 20260906184052 | 31 | 61 | 4.8 | 14.5 | 0.00 | 0.00 | 0.00 | 29 | 1005.1 |
| 20260906183552 | 31 | 104 | 6.4 | 19.3 | 0.00 | 0.00 | 0.00 | 29 | 1005.4 |
| 20260906183051 | 31 | 117 | 6.4 | 19.3 | 0.00 | 0.00 | 0.00 | 28 | 1005.6 |
| 20260906182549 | 31 | 136 | 1.6 | 14.5 | 0.00 | 0.00 | 0.00 | 29 | 1005.6 |
| 20260906182051 | 30 | 94 | 4.8 | 16.1 | 0.00 | 0.00 | 0.00 | 30 | 1005.8 |
| 20260906181615 | 30 | 55 | 6.4 | 16.1 | 0.00 | 0.00 | 0.00 | 30 | 1005.9 |
| 20260906181045 | 30 | 80 | 4.8 | 14.5 | 0.00 | 0.00 | 0.00 | 31 | 1006.0 |
| 20260906180546 | 30 | 59 | 3.2 | 14.5 | 0.00 | 0.00 | 0.00 | 30 | 1006.1 |
| 20260906180043 | 30 | 30 | 3.2 | 9.7 | 0.00 | 0.00 | 0.00 | 30 | 1006.3 |
| 20260906175542 | 30 | 67 | 3.2 | 17.7 | 0.00 | 0.00 | 0.00 | 30 | 1006.4 |
| 20260906175042 | 30 | 118 | 6.4 | 12.9 | 0.00 | 0.00 | 0.00 | 31 | 1006.5 |
| 20260906174547 | 30 | 56 | 1.6 | 9.7 | 0.00 | 0.00 | 0.00 | 31 | 1006.5 |
| 20260906174041 | 29 | 186 | 0.0 | 11.3 | 0.00 | 0.00 | 0.00 | 30 | 1006.7 |
| 20260906173536 | 29 | 101 | 1.6 | 11.3 | 0.00 | 0.00 | 0.00 | 30 | 1006.8 |
| 20260906173036 | 29 | 132 | 0.0 | 8.0 | 0.00 | 0.00 | 0.00 | 30 | 1006.9 |
| 20260906172535 | 29 | 167 | 3.2 | 8.0 | 0.00 | 0.00 | 0.00 | 31 | 1007.0 |
| 20260906172036 | 28 | 117 | 1.6 | 6.4 | 0.00 | 0.00 | 0.00 | 31 | 1007.1 |
| 20260906171532 | 28 | 331 | 1.6 | 9.7 | 0.00 | 0.00 | 0.00 | 34 | 1007.2 |
| 20260906171030 | 28 | 185 | 0.0 | 9.7 | 0.00 | 0.00 | 0.00 | 33 | 1007.2 |
| 20260906170529 | 28 | 126 | 4.8 | 11.3 | 0.00 | 0.00 | 0.00 | 31 | 1007.3 |
| 20260906170028 | 28 | 61 | 0.0 | 4.8 | 0.00 | 0.00 | 0.00 | 35 | 1007.3 |
| 20260906165530 | 28 | 34 | 1.6 | 6.4 | 0.00 | 0.00 | 0.00 | 36 | 1007.4 |
| 20260906165033 | 28 | 294 | 1.6 | 9.7 | 0.00 | 0.00 | 0.00 | 36 | 1007.5 |
| 20260906164527 | 27 | 30 | 1.6 | 9.7 | 0.00 | 0.00 | 0.00 | 36 | 1007.5 |
| 20260906164022 | 27 | 38 | 3.2 | 6.4 | 0.00 | 0.00 | 0.00 | 37 | 1007.5 |
| 20260906163520 | 27 | 50 | 1.6 | 6.4 | 0.00 | 0.00 | 0.00 | 37 | 1007.6 |
| 20260906163019 | 26 | 49 | 1.6 | 6.4 | 0.00 | 0.00 | 0.00 | 38 | 1007.6 |
| 20260906162518 | 26 | 52 | 1.6 | 6.4 | 0.00 | 0.00 | 0.00 | 39 | 1007.7 |
| 20260906162015 | 26 | 49 | 1.6 | 6.4 | 0.00 | 0.00 | 0.00 | 40 | 1007.7 |
| 20260906161516 | 25 | 55 | 0.0 | 4.8 | 0.00 | 0.00 | 0.00 | 41 | 1007.8 |
| 20260906161013 | 25 | 50 | 0.0 | 4.8 | 0.00 | 0.00 | 0.00 | 41 | 1007.8 |
| 20260906160511 | 25 | 54 | 1.6 | 6.4 | 0.00 | 0.00 | 0.00 | 42 | 1007.8 |
| 20260906160010 | 25 | 63 | 1.6 | 6.4 | 0.00 | 0.00 | 0.00 | 41 | 1008.0 |
| 20260906155509 | 24 | 132 | 1.6 | 4.8 | 0.00 | 0.00 | 0.00 | 43 | 1007.8 |
| 20260906155008 | 23 | 133 | 0.0 | 4.8 | 0.00 | 0.00 | 0.00 | 43 | 1007.9 |
| 20260906154517 | 23 | 133 | 1.6 | 4.8 | 0.00 | 0.00 | 0.00 | 44 | 1007.9 |
| 20260906154005 | 23 | 97 | 1.6 | 4.8 | 0.00 | 0.00 | 0.00 | 44 | 1007.9 |
| 20260906153504 | 22 | 96 | 0.0 | 0.0 | 0.00 | 0.00 | 0.00 | 44 | 1007.7 |
| 20260906153003 | 22 | 77 | 0.0 | 0.0 | 0.00 | 0.00 | 0.00 | 45 | 1007.8 |
| 20260906152601 | 22 | 65 | 0.0 | 0.0 | 0.00 | 0.00 | 0.00 | 46 | 1007.8 |
| 20260906152058 | 22 | 65 | 0.0 | 0.0 | 0.00 | 0.00 | 0.00 | 47 | 1007.8 |
| 20260906151603 | 22 | 65 | 0.0 | 0.0 | 0.00 | 0.00 | 0.00 | 49 | 1007.8 |
| 20260906151057 | 21 | 66 | 0.0 | 1.6 | 0.00 | 0.00 | 0.00 | 50 | 1007.9 |
| 20260906150554 | 21 | 66 | 0.0 | 0.0 | 0.00 | 0.00 | 0.00 | 50 | 1007.9 |
| 20260906150053 | 21 | 64 | 0.0 | 0.0 | 0.00 | 0.00 | 0.00 | 52 | 1008.0 |
| 20260906145551 | 21 | 64 | 0.0 | 0.0 | 0.00 | 0.00 | 0.00 | 53 | 1008.0 |
| 20260906145050 | 20 | 65 | 0.0 | 0.0 | 0.00 | 0.00 | 0.00 | 55 | 1008.1 |
| 20260906144606 | 20 | 65 | 0.0 | 0.0 | 0.00 | 0.00 | 0.00 | 55 | 1008.1 |
| 20260906144047 | 20 | 65 | 0.0 | 0.0 | 0.00 | 0.00 | 0.00 | 57 | 1008.0 |
| 20260906143548 | 19 | 65 | 0.0 | 0.0 | 0.00 | 0.00 | 0.00 | 58 | 1008.1 |
| 20260906143044 | 19 | 65 | 0.0 | 1.6 | 0.00 | 0.00 | 0.00 | 58 | 1008.2 |
| 20260906142542 | 18 | 64 | 0.0 | 4.8 | 0.00 | 0.00 | 0.00 | 58 | 1008.3 |
| 20260906142042 | 18 | 65 | 1.6 | 6.4 | 0.00 | 0.00 | 0.00 | 57 | 1008.3 |
| 20260906141540 | 18 | 64 | 1.6 | 6.4 | 0.00 | 0.00 | 0.00 | 56 | 1008.3 |
| 20260906141038 | 17 | 136 | 0.0 | 4.8 | 0.00 | 0.00 | 0.00 | 58 | 1008.3 |
| 20260906140536 | 17 | 137 | 0.0 | 1.6 | 0.00 | 0.00 | 0.00 | 60 | 1008.2 |
| 20260906140037 | 17 | 156 | 0.0 | 3.2 | 0.00 | 0.00 | 0.00 | 61 | 1008.1 |
| 20260906135534 | 16 | 156 | 0.0 | 3.2 | 0.00 | 0.00 | 0.00 | 61 | 1008.2 |
| 20260906135032 | 16 | 156 | 0.0 | 3.2 | 0.00 | 0.00 | 0.00 | 62 | 1008.1 |
| 20260906134534 | 16 | 156 | 0.0 | 3.2 | 0.00 | 0.00 | 0.00 | 64 | 1008.1 |
| 20260906134030 | 15 | 156 | 0.0 | 3.2 | 0.00 | 0.00 | 0.00 | 65 | 1008.1 |
| 20260906133527 | 15 | 156 | 0.0 | 1.6 | 0.00 | 0.00 | 0.00 | 65 | 1008.1 |
| 20260906133027 | 15 | 156 | 0.0 | 1.6 | 0.00 | 0.00 | 0.00 | 65 | 1008.0 |
| 20260906132525 | 15 | 156 | 0.0 | 4.8 | 0.00 | 0.00 | 0.00 | 65 | 1008.0 |
| 20260906132023 | 15 | 156 | 0.0 | 4.8 | 0.00 | 0.00 | 0.00 | 65 | 1007.9 |
| 20260906131523 | 15 | 164 | 0.0 | 4.8 | 0.00 | 0.00 | 0.00 | 65 | 1007.8 |
| 20260906131022 | 15 | 164 | 0.0 | 3.2 | 0.00 | 0.00 | 0.00 | 64 | 1007.8 |
| 20260906130522 | 15 | 164 | 0.0 | 3.2 | 0.00 | 0.00 | 0.00 | 64 | 1007.9 |
| 20260906130020 | 15 | 164 | 0.0 | 3.2 | 0.00 | 0.00 | 0.00 | 63 | 1007.8 |
| 20260906125520 | 15 | 164 | 0.0 | 4.8 | 0.00 | 0.00 | 0.00 | 63 | 1007.7 |
| 20260906125020 | 15 | 164 | 0.0 | 4.8 | 0.00 | 0.00 | 0.00 | 63 | 1007.8 |
| 20260906124522 | 15 | 186 | 0.0 | 0.0 | 0.00 | 0.00 | 0.00 | 63 | 1007.7 |
| 20260906124019 | 15 | 186 | 0.0 | 0.0 | 0.00 | 0.00 | 0.00 | 63 | 1007.5 |
| 20260906123517 | 15 | 187 | 0.0 | 0.0 | 0.00 | 0.00 | 0.00 | 62 | 1007.5 |
| 20260906123016 | 15 | 187 | 0.0 | 1.6 | 0.00 | 0.00 | 0.00 | 62 | 1007.5 |
| 20260906122517 | 15 | 187 | 0.0 | 0.0 | 0.00 | 0.00 | 0.00 | 62 | 1007.5 |
| 20260906122017 | 15 | 187 | 0.0 | 0.0 | 0.00 | 0.00 | 0.00 | 62 | 1007.6 |
| 20260906121517 | 15 | 187 | 0.0 | 0.0 | 0.00 | 0.00 | 0.00 | 62 | 1007.5 |
| 20260906121021 | 15 | 187 | 0.0 | 1.6 | 0.00 | 0.00 | 0.00 | 61 | 1007.6 |
| 20260906120515 | 15 | 187 | 0.0 | 1.6 | 0.00 | 0.00 | 0.00 | 61 | 1007.7 |
| 20260906120014 | 15 | 187 | 0.0 | 1.6 | 0.00 | 0.00 | 0.00 | 61 | 1007.6 |
| 20260906115514 | 15 | 187 | 0.0 | 0.0 | 0.00 | 0.00 | 0.00 | 61 | 1007.6 |
| 20260906115013 | 15 | 187 | 0.0 | 1.6 | 0.00 | 0.00 | 0.00 | 61 | 1007.7 |
| 20260906114528 | 15 | 187 | 0.0 | 4.8 | 0.00 | 0.00 | 0.00 | 60 | 1007.6 |
| 20260906114011 | 15 | 187 | 1.6 | 6.4 | 0.00 | 0.00 | 0.00 | 60 | 1007.4 |
| 20260906113510 | 16 | 187 | 3.2 | 6.4 | 0.00 | 0.00 | 0.00 | 60 | 1007.6 |
| 20260906113009 | 16 | 186 | 1.6 | 4.8 | 0.00 | 0.00 | 0.00 | 59 | 1007.5 |
| 20260906112509 | 16 | 180 | 0.0 | 0.0 | 0.00 | 0.00 | 0.00 | 59 | 1007.4 |
| 20260906112008 | 16 | 180 | 0.0 | 0.0 | 0.00 | 0.00 | 0.00 | 59 | 1007.3 |
| 20260906111507 | 16 | 180 | 0.0 | 0.0 | 0.00 | 0.00 | 0.00 | 58 | 1007.1 |
| 20260906111006 | 16 | 180 | 0.0 | 0.0 | 0.00 | 0.00 | 0.00 | 58 | 1007.2 |
| 20260906110506 | 16 | 180 | 0.0 | 0.0 | 0.00 | 0.00 | 0.00 | 57 | 1007.2 |
| 20260906110005 | 16 | 180 | 0.0 | 0.0 | 0.00 | 0.00 | 0.00 | 57 | 1007.2 |
| 20260906105504 | 16 | 180 | 0.0 | 0.0 | 0.00 | 0.00 | 0.00 | 57 | 1007.3 |
| 20260906105004 | 16 | 180 | 0.0 | 0.0 | 0.00 | 0.00 | 0.00 | 56 | 1007.2 |
| 20260906104502 | 16 | 179 | 0.0 | 0.0 | 0.00 | 0.00 | 0.00 | 56 | 1007.0 |
| 20260906104002 | 16 | 179 | 0.0 | 1.6 | 0.00 | 0.00 | 0.00 | 56 | 1007.1 |
| 20260906103501 | 16 | 179 | 0.0 | 3.2 | 0.00 | 0.00 | 0.00 | 56 | 1007.1 |
| 20260906103101 | 16 | 179 | 0.0 | 4.8 | 0.00 | 0.00 | 0.00 | 56 | 1007.1 |
| 20260906102600 | 17 | 180 | 0.0 | 4.8 | 0.00 | 0.00 | 0.00 | 56 | 1007.0 |
| 20260906102059 | 17 | 184 | 0.0 | 0.0 | 0.00 | 0.00 | 0.00 | 56 | 1006.9 |
| 20260906101600 | 17 | 184 | 0.0 | 0.0 | 0.00 | 0.00 | 0.00 | 56 | 1006.9 |
| 20260906101102 | 17 | 184 | 0.0 | 0.0 | 0.00 | 0.00 | 0.00 | 56 | 1007.0 |
| 20260906100603 | 17 | 184 | 0.0 | 0.0 | 0.00 | 0.00 | 0.00 | 56 | 1007.1 |
| 20260906100058 | 17 | 184 | 0.0 | 3.2 | 0.00 | 0.00 | 0.00 | 56 | 1007.0 |
| 20260906095601 | 17 | 184 | 0.0 | 3.2 | 0.00 | 0.00 | 0.00 | 56 | 1007.0 |
| 20260906095058 | 17 | 232 | 0.0 | 0.0 | 0.00 | 0.00 | 0.00 | 57 | 1007.0 |
| 20260906094613 | 17 | 232 | 0.0 | 0.0 | 0.00 | 0.00 | 0.00 | 56 | 1007.0 |
| 20260906094057 | 17 | 232 | 0.0 | 3.2 | 0.00 | 0.00 | 0.00 | 56 | 1006.9 |
| 20260906093556 | 17 | 232 | 0.0 | 4.8 | 0.00 | 0.00 | 0.00 | 57 | 1007.0 |
| 20260906093128 | 17 | 234 | 0.0 | 6.4 | 0.00 | 0.00 | 0.00 | 56 | 1006.9 |
| 20260906092554 | 17 | 234 | 4.8 | 6.4 | 0.00 | 0.00 | 0.00 | 56 | 1006.8 |
| 20260906092054 | 17 | 234 | 3.2 | 4.8 | 0.00 | 0.00 | 0.00 | 56 | 1006.9 |
| 20260906091601 | 17 | 234 | 0.0 | 6.4 | 0.00 | 0.00 | 0.00 | 56 | 1007.0 |
| 20260906091055 | 17 | 234 | 3.2 | 6.4 | 0.00 | 0.00 | 0.00 | 55 | 1007.0 |
| 20260906090550 | 17 | 230 | 3.2 | 6.4 | 0.00 | 0.00 | 0.00 | 55 | 1006.9 |
| 20260906090049 | 18 | 227 | 3.2 | 6.4 | 0.00 | 0.00 | 0.00 | 54 | 1006.7 |
| 20260906085549 | 18 | 209 | 1.6 | 6.4 | 0.00 | 0.00 | 0.00 | 53 | 1006.8 |
| 20260906085048 | 18 | 166 | 0.0 | 4.8 | 0.00 | 0.00 | 0.00 | 52 | 1006.8 |
| 20260906084548 | 18 | 166 | 0.0 | 1.6 | 0.00 | 0.00 | 0.00 | 52 | 1006.7 |
| 20260906084051 | 18 | 166 | 0.0 | 3.2 | 0.00 | 0.00 | 0.00 | 52 | 1006.6 |
| 20260906083548 | 18 | 166 | 0.0 | 8.0 | 0.00 | 0.00 | 0.00 | 52 | 1006.6 |
| 20260906083049 | 18 | 166 | 1.6 | 8.0 | 0.00 | 0.00 | 0.00 | 52 | 1006.6 |
| 20260906082545 | 18 | 223 | 1.6 | 4.8 | 0.00 | 0.00 | 0.00 | 51 | 1006.7 |
| 20260906082044 | 18 | 242 | 0.0 | 3.2 | 0.00 | 0.00 | 0.00 | 51 | 1006.7 |
| 20260906081545 | 18 | 242 | 0.0 | 1.6 | 0.00 | 0.00 | 0.00 | 51 | 1006.7 |
| 20260906081044 | 18 | 242 | 0.0 | 0.0 | 0.00 | 0.00 | 0.00 | 51 | 1006.7 |
| 20260906080542 | 18 | 242 | 0.0 | 0.0 | 0.00 | 0.00 | 0.00 | 51 | 1006.6 |
| 20260906080043 | 18 | 242 | 0.0 | 4.8 | 0.00 | 0.00 | 0.00 | 51 | 1006.8 |
| 20260906075541 | 18 | 242 | 0.0 | 4.8 | 0.00 | 0.00 | 0.00 | 51 | 1006.7 |
| 20260906075041 | 18 | 242 | 1.6 | 6.4 | 0.00 | 0.00 | 0.00 | 51 | 1006.8 |
| 20260906074541 | 18 | 242 | 3.2 | 4.8 | 0.00 | 0.00 | 0.00 | 51 | 1006.8 |
| 20260906074040 | 18 | 242 | 1.6 | 4.8 | 0.00 | 0.00 | 0.00 | 51 | 1006.7 |
| 20260906073540 | 18 | 242 | 1.6 | 6.4 | 0.00 | 0.00 | 0.00 | 51 | 1006.7 |
| 20260906073039 | 18 | 243 | 3.2 | 6.4 | 0.00 | 0.00 | 0.00 | 51 | 1006.6 |
| 20260906072538 | 19 | 249 | 3.2 | 6.4 | 0.00 | 0.00 | 0.00 | 51 | 1006.7 |
| 20260906072037 | 19 | 284 | 3.2 | 4.8 | 0.00 | 0.00 | 0.00 | 51 | 1006.6 |
| 20260906071539 | 19 | 284 | 1.6 | 4.8 | 0.00 | 0.00 | 0.00 | 51 | 1006.6 |
| 20260906071040 | 19 | 284 | 3.2 | 4.8 | 0.00 | 0.00 | 0.00 | 51 | 1006.5 |
| 20260906070535 | 19 | 291 | 3.2 | 6.4 | 0.00 | 0.00 | 0.00 | 50 | 1006.5 |
| 20260906070036 | 19 | 293 | 3.2 | 6.4 | 0.00 | 0.00 | 0.00 | 50 | 1006.3 |
| 20260906065536 | 19 | 298 | 3.2 | 6.4 | 0.00 | 0.00 | 0.00 | 51 | 1006.2 |
| 20260906065035 | 19 | 316 | 0.0 | 0.0 | 0.00 | 0.00 | 0.00 | 52 | 1006.2 |
| 20260906064534 | 19 | 333 | 0.0 | 0.0 | 0.00 | 0.00 | 0.00 | 53 | 1006.2 |
| 20260906064033 | 20 | 333 | 0.0 | 0.0 | 0.00 | 0.00 | 0.00 | 51 | 1006.3 |
| 20260906063534 | 20 | 333 | 0.0 | 0.0 | 0.00 | 0.00 | 0.00 | 50 | 1006.2 |
| 20260906063034 | 20 | 333 | 0.0 | 0.0 | 0.00 | 0.00 | 0.00 | 50 | 1006.3 |
| 20260906062535 | 20 | 333 | 0.0 | 0.0 | 0.00 | 0.00 | 0.00 | 50 | 1006.3 |
| 20260906062029 | 20 | 333 | 0.0 | 0.0 | 0.00 | 0.00 | 0.00 | 49 | 1006.3 |
| 20260906061529 | 20 | 333 | 0.0 | 0.0 | 0.00 | 0.00 | 0.00 | 49 | 1006.4 |
| 20260906061026 | 21 | 333 | 0.0 | 4.8 | 0.00 | 0.00 | 0.00 | 51 | 1006.4 |
| 20260906060528 | 21 | 333 | 1.6 | 6.4 | 0.00 | 0.00 | 0.00 | 51 | 1006.4 |
| 20260906060024 | 21 | 335 | 0.0 | 6.4 | 0.00 | 0.00 | 0.00 | 47 | 1006.5 |
| 20260906055524 | 21 | 336 | 0.0 | 9.7 | 0.00 | 0.00 | 0.00 | 46 | 1006.7 |
| 20260906055024 | 21 | 329 | 3.2 | 9.7 | 0.00 | 0.00 | 0.00 | 45 | 1006.8 |
| 20260906054524 | 21 | 360 | 0.0 | 4.8 | 0.00 | 0.00 | 0.00 | 45 | 1006.5 |
| 20260906054026 | 21 | 37 | 0.0 | 8.0 | 0.00 | 0.00 | 0.00 | 46 | 1006.4 |
| 20260906053523 | 21 | 43 | 0.0 | 14.5 | 0.00 | 0.00 | 0.00 | 47 | 1006.5 |
| 20260906053023 | 21 | 348 | 4.8 | 14.5 | 0.00 | 0.00 | 0.00 | 47 | 1006.5 |
| 20260906052523 | 21 | 16 | 3.2 | 8.0 | 0.00 | 0.00 | 0.00 | 52 | 1006.5 |
| 20260906052023 | 21 | 242 | 0.0 | 0.0 | 0.00 | 0.00 | 0.00 | 53 | 1006.2 |
| 20260906051523 | 21 | 242 | 0.0 | 0.0 | 0.00 | 0.00 | 0.00 | 52 | 1006.2 |
| 20260906051022 | 21 | 242 | 0.0 | 0.0 | 0.00 | 0.00 | 0.00 | 52 | 1006.3 |
| 20260906050524 | 21 | 242 | 0.0 | 0.0 | 0.00 | 0.00 | 0.00 | 54 | 1006.4 |
| 20260906050023 | 21 | 242 | 0.0 | 0.0 | 0.00 | 0.00 | 0.00 | 53 | 1006.4 |
| 20260906045522 | 21 | 242 | 0.0 | 6.4 | 0.00 | 0.00 | 0.00 | 52 | 1006.4 |
| 20260906045022 | 22 | 242 | 1.6 | 6.4 | 0.00 | 0.00 | 0.00 | 51 | 1006.5 |
| 20260906044522 | 22 | 241 | 0.0 | 4.8 | 0.00 | 0.00 | 0.00 | 52 | 1006.5 |
| 20260906044022 | 22 | 154 | 0.0 | 0.0 | 0.00 | 0.00 | 0.00 | 52 | 1006.6 |
| 20260906043521 | 22 | 154 | 0.0 | 1.6 | 0.00 | 0.00 | 0.00 | 51 | 1006.6 |
| 20260906043021 | 22 | 154 | 0.0 | 3.2 | 0.00 | 0.00 | 0.00 | 50 | 1006.5 |
| 20260906042522 | 22 | 154 | 0.0 | 3.2 | 0.00 | 0.00 | 0.00 | 49 | 1006.6 |
| 20260906042021 | 23 | 154 | 0.0 | 4.8 | 0.00 | 0.00 | 0.00 | 48 | 1006.7 |
| 20260906041521 | 23 | 154 | 0.0 | 4.8 | 0.00 | 0.00 | 0.00 | 48 | 1006.6 |
| 20260906041021 | 23 | 240 | 0.0 | 3.2 | 0.00 | 0.00 | 0.00 | 47 | 1006.5 |
| 20260906040520 | 23 | 240 | 0.0 | 8.0 | 0.00 | 0.00 | 0.00 | 45 | 1006.5 |
| 20260906040028 | 23 | 240 | 3.2 | 8.0 | 0.00 | 0.00 | 0.00 | 45 | 1006.5 |
| 20260906035520 | 23 | 173 | 0.0 | 3.2 | 0.00 | 0.00 | 0.00 | 48 | 1006.6 |
| 20260906035023 | 23 | 173 | 0.0 | 3.2 | 0.00 | 0.00 | 0.00 | 48 | 1006.5 |
| 20260906034521 | 23 | 173 | 0.0 | 9.7 | 0.00 | 0.00 | 0.00 | 48 | 1006.7 |
| 20260906034021 | 23 | 173 | 1.6 | 9.7 | 0.00 | 0.00 | 0.00 | 49 | 1006.8 |
| 20260906033519 | 23 | 194 | 3.2 | 11.3 | 0.00 | 0.00 | 0.00 | 48 | 1006.7 |
| 20260906033027 | 23 | 159 | 6.4 | 11.3 | 0.00 | 0.00 | 0.00 | 49 | 1006.7 |
| 20260906032518 | 22 | 116 | 1.6 | 9.7 | 0.00 | 0.00 | 0.00 | 43 | 1006.7 |
| 20260906032018 | 22 | 81 | 3.2 | 9.7 | 0.00 | 0.00 | 0.00 | 38 | 1006.6 |
| 20260906031518 | 22 | 128 | 1.6 | 12.9 | 0.00 | 0.00 | 0.00 | 37 | 1006.7 |
| 20260906031018 | 22 | 129 | 4.8 | 12.9 | 0.00 | 0.00 | 0.00 | 36 | 1006.6 |
| 20260906030518 | 23 | 287 | 0.0 | 6.4 | 0.00 | 0.00 | 0.00 | 35 | 1006.0 |
| 20260906030019 | 23 | 287 | 1.6 | 8.0 | 0.00 | 0.00 | 0.00 | 35 | 1005.8 |
| 20260906025517 | 23 | 242 | 4.8 | 8.0 | 0.00 | 0.00 | 0.00 | 34 | 1005.5 |
| 20260906025019 | 23 | 246 | 3.2 | 6.4 | 0.00 | 0.00 | 0.00 | 34 | 1005.4 |
| 20260906024533 | 23 | 246 | 3.2 | 8.0 | 0.00 | 0.00 | 0.00 | 33 | 1005.4 |
| 20260906024017 | 24 | 250 | 4.8 | 6.4 | 0.00 | 0.00 | 0.00 | 33 | 1005.3 |
| 20260906023517 | 24 | 266 | 0.0 | 1.6 | 0.00 | 0.00 | 0.00 | 32 | 1005.1 |
| 20260906023022 | 24 | 266 | 0.0 | 3.2 | 0.00 | 0.00 | 0.00 | 32 | 1005.2 |
| 20260906022516 | 25 | 266 | 1.6 | 3.2 | 0.00 | 0.00 | 0.00 | 32 | 1005.2 |
| 20260906022018 | 25 | 266 | 0.0 | 8.0 | 0.00 | 0.00 | 0.00 | 32 | 1005.3 |
| 20260906021518 | 25 | 266 | 3.2 | 8.0 | 0.00 | 0.00 | 0.00 | 31 | 1005.2 |
| 20260906021016 | 25 | 219 | 3.2 | 6.4 | 0.00 | 0.00 | 0.00 | 31 | 1005.1 |
| 20260906020516 | 25 | 188 | 4.8 | 6.4 | 0.00 | 0.00 | 0.00 | 30 | 1005.1 |
| 20260906020016 | 25 | 154 | 1.6 | 4.8 | 0.00 | 0.00 | 0.00 | 30 | 1005.0 |
| 20260906015515 | 25 | 154 | 1.6 | 4.8 | 0.00 | 0.00 | 0.00 | 30 | 1004.9 |
| 20260906015016 | 25 | 154 | 1.6 | 8.0 | 0.00 | 0.00 | 0.00 | 30 | 1004.7 |
| 20260906014524 | 26 | 154 | 3.2 | 8.0 | 0.00 | 0.00 | 0.00 | 29 | 1004.8 |
| 20260906014015 | 26 | 151 | 1.6 | 8.0 | 0.00 | 0.00 | 0.00 | 29 | 1004.7 |
| 20260906013517 | 26 | 152 | 1.6 | 8.0 | 0.00 | 0.00 | 0.00 | 29 | 1004.6 |
| 20260906013034 | 26 | 152 | 1.6 | 8.0 | 0.00 | 0.00 | 0.00 | 28 | 1004.6 |
| 20260906012517 | 27 | 153 | 1.6 | 11.3 | 0.00 | 0.00 | 0.00 | 28 | 1004.4 |
| 20260906012014 | 27 | 162 | 3.2 | 8.0 | 0.00 | 0.00 | 0.00 | 27 | 1004.5 |
| 20260906011515 | 27 | 164 | 3.2 | 8.0 | 0.00 | 0.00 | 0.00 | 27 | 1004.5 |
| 20260906011015 | 27 | 165 | 1.6 | 11.3 | 0.00 | 0.00 | 0.00 | 26 | 1004.6 |
| 20260906010514 | 28 | 166 | 3.2 | 11.3 | 0.00 | 0.00 | 0.00 | 26 | 1004.6 |
| 20260906010014 | 28 | 171 | 6.4 | 11.3 | 0.00 | 0.00 | 0.00 | 26 | 1004.6 |
| 20260906005513 | 28 | 188 | 3.2 | 11.3 | 0.00 | 0.00 | 0.00 | 26 | 1004.8 |
| 20260906005014 | 28 | 215 | 6.4 | 12.9 | 0.00 | 0.00 | 0.00 | 25 | 1004.7 |
| 20260906004514 | 28 | 214 | 4.8 | 11.3 | 0.00 | 0.00 | 0.00 | 25 | 1004.8 |
| 20260906004013 | 28 | 214 | 4.8 | 22.5 | 0.00 | 0.00 | 0.00 | 25 | 1004.7 |
| 20260906003615 | 28 | 186 | 8.0 | 22.5 | 0.00 | 0.00 | 0.00 | 24 | 1004.7 |
| 20260906003012 | 28 | 202 | 9.7 | 16.1 | 0.00 | 0.00 | 0.00 | 24 | 1004.8 |
| 20260906002511 | 29 | 202 | 11.3 | 19.3 | 0.00 | 0.00 | 0.00 | 23 | 1004.6 |
| 20260906002012 | 29 | 226 | 11.3 | 19.3 | 0.00 | 0.00 | 0.00 | 23 | 1004.6 |
| 20260906001513 | 29 | 218 | 11.3 | 19.3 | 0.00 | 0.00 | 0.00 | 23 | 1004.6 |
| 20260906001011 | 29 | 216 | 11.3 | 19.3 | 0.00 | 0.00 | 0.00 | 23 | 1004.6 |
| 20260906000512 | 30 | 177 | 8.0 | 16.1 | 0.00 | 0.00 | 0.00 | 23 | 1004.6 |
| 20260906000012 | 30 | 196 | 8.0 | 12.9 | 0.00 | 0.00 | 0.00 | 24 | 1004.6 |
| 20260905235514 | 30 | 171 | 6.4 | 14.5 | 0.00 | 0.00 | 0.00 | 24 | 1004.5 |
| 20260905235011 | 30 | 175 | 8.0 | 17.7 | 0.00 | 0.00 | 0.00 | 24 | 1004.5 |
| 20260905234511 | 30 | 156 | 6.4 | 12.9 | 0.00 | 0.00 | 0.00 | 24 | 1004.3 |
| 20260905234011 | 30 | 134 | 8.0 | 14.5 | 0.00 | 0.00 | 0.00 | 24 | 1004.4 |
| 20260905233610 | 30 | 169 | 8.0 | 19.3 | 0.00 | 0.00 | 0.00 | 23 | 1004.4 |
| 20260905233012 | 30 | 173 | 11.3 | 20.9 | 0.00 | 0.00 | 0.00 | 23 | 1004.4 |
| 20260905232510 | 30 | 171 | 9.7 | 19.3 | 0.00 | 0.00 | 0.00 | 23 | 1004.5 |
| 20260905232010 | 30 | 196 | 11.3 | 20.9 | 0.00 | 0.00 | 0.00 | 23 | 1004.4 |
| 20260905231509 | 31 | 181 | 9.7 | 19.3 | 0.00 | 0.00 | 0.00 | 23 | 1004.3 |
| 20260905231008 | 31 | 154 | 11.3 | 17.7 | 0.00 | 0.00 | 0.00 | 23 | 1004.4 |
| 20260905230509 | 31 | 86 | 1.6 | 11.3 | 0.00 | 0.00 | 0.00 | 22 | 1004.4 |
| 20260905230009 | 31 | 117 | 1.6 | 11.3 | 0.00 | 0.00 | 0.00 | 22 | 1004.3 |
| 20260905225508 | 31 | 30 | 1.6 | 6.4 | 0.00 | 0.00 | 0.00 | 22 | 1004.3 |
| 20260905225007 | 31 | 109 | 1.6 | 12.9 | 0.00 | 0.00 | 0.00 | 22 | 1004.2 |
| 20260905224508 | 31 | 132 | 0.0 | 12.9 | 0.00 | 0.00 | 0.00 | 21 | 1004.4 |
| 20260905224007 | 31 | 121 | 3.2 | 9.7 | 0.00 | 0.00 | 0.00 | 21 | 1004.3 |
| 20260905223506 | 31 | 5 | 3.2 | 9.7 | 0.00 | 0.00 | 0.00 | 21 | 1004.3 |
| 20260905223006 | 31 | 109 | 3.2 | 11.3 | 0.00 | 0.00 | 0.00 | 21 | 1004.6 |
| 20260905222506 | 31 | 63 | 3.2 | 9.7 | 0.00 | 0.00 | 0.00 | 21 | 1004.5 |
| 20260905222005 | 31 | 97 | 1.6 | 9.7 | 0.00 | 0.00 | 0.00 | 21 | 1004.6 |
| 20260905221505 | 31 | 87 | 3.2 | 11.3 | 0.00 | 0.00 | 0.00 | 21 | 1004.5 |